Flag for Netherlands Weather past 2 weeks in Leiden, Netherlands

Now
52 °F

Mostly cloudy.


Feels Like: 46 °F
Forecast: 48 / 60 °F
Wind: 17 mph from Southwest

Location: Rotterdam Zestienhoven Airport

Current Time: May 7, 2015 at 6:49:41 AM

Latest Report: May 7, 2015 at 6:25 AM


Visibility: N/A

Pressure: 29.92 "Hg

Humidity: 82%

Dew point: 46 °F

Location of LeidenLocation

Historic Weather in Leiden — Graph

°F

Leiden temperature yesterday

Maximum temperature yesterday: 59 °F (at 12:25 PM)
Minimum temperature yesterday: 50 °F (at 12:55 PM)
Average temperature yesterday: 54 °F

Past Weeks' High & Low Weather Summary

 TemperatureHumidityPressure
High68 °F (May 5, 11:25 AM)100% (Apr 22, 5:25 AM)30.48 "Hg (Apr 22, 5:25 AM)
Low34 °F (Apr 28, 1:55 AM)40% (Apr 24, 3:25 PM)29.27 "Hg (May 5, 6:25 AM)
Average51 °F75%29.83 "Hg
* Reported Apr 22 5:25 AM — May 7 5:55 AM, Leiden, Weather by CustomWeather, © 2015

Note: Actual official high and low records may vary slightly from our data, if they occured in-between our weather recording intervals... More about our weather records

Advertising

Leiden weather history for previous 24 hours

 ConditionsComfort  
Time TempWeatherWind HumidityBarometerVisibility
5:55 AM
Thu, May 7
52 °FPartly cloudy.15 mph82%29.89 "HgN/A
5:25 AM52 °FMostly cloudy.18 mph82%29.89 "HgN/A
4:55 AM52 °FMostly cloudy.21 mph82%29.89 "HgN/A
4:25 AM52 °FPartly cloudy.21 mph82%29.89 "HgN/A
3:55 AM52 °FMostly cloudy.21 mph82%29.86 "HgN/A
3:25 AM52 °FMostly cloudy.21 mph82%29.86 "HgN/A
2:55 AM52 °FMostly cloudy.22 mph82%29.86 "HgN/A
2:25 AM52 °FMostly cloudy.21 mph82%29.86 "HgN/A
1:55 AM52 °FMostly cloudy.21 mph77%29.86 "HgN/A
1:25 AM52 °FMostly cloudy.21 mph77%29.86 "HgN/A
12:55 AM52 °FMostly cloudy.23 mph77%29.83 "HgN/A
12:25 AM52 °FMostly cloudy.23 mph77%29.83 "HgN/A
11:55 PM
Wed, May 6
52 °FMostly cloudy.24 mph77%29.83 "HgN/A
10:55 PM52 °FPartly cloudy.25 mph77%29.83 "HgN/A
10:25 PM54 °FPassing clouds.24 mph72%29.80 "HgN/A
9:55 PM54 °FCool.29 mph67%29.80 "HgN/A
9:25 PM54 °FClear.29 mph67%29.80 "HgN/A
8:55 PM54 °FCool.26 mph67%29.77 "HgN/A
8:25 PM54 °FPassing clouds.26 mph67%29.77 "HgN/A
7:55 PM55 °FCool.26 mph67%29.77 "HgN/A
7:25 PM55 °FPassing clouds.26 mph67%29.77 "HgN/A
6:55 PM57 °FPassing clouds.29 mph63%29.77 "HgN/A
6:25 PM57 °FPartly sunny.29 mph59%29.74 "HgN/A
5:55 PM57 °FBroken clouds.23 mph63%29.74 "HgN/A
5:25 PM57 °FScattered clouds.31 mph59%29.74 "HgN/A
4:55 PM57 °FScattered clouds.25 mph63%29.74 "HgN/A
4:25 PM55 °FBroken clouds.33 mph67%29.74 "HgN/A
3:55 PM55 °FBroken clouds.25 mph72%29.74 "HgN/A
3:25 PM54 °FThunderstorms. Partly sunny.25 mph77%29.74 "HgN/A
2:55 PM59 °FBroken clouds.21 mph68%29.74 "HgN/A
2:25 PM57 °FClear.17 mph72%29.74 "HgN/A
1:55 PM52 °FPartly sunny.20 mph77%29.74 "HgN/A
1:25 PM50 °FThunderstorms. Partly sunny.18 mph82%29.77 "HgN/A
12:55 PM50 °FThunderstorms. Broken clouds.32 mph76%29.74 "HgN/A
12:25 PM59 °FBroken clouds.22 mph63%29.74 "HgN/A
11:55 AM57 °FBroken clouds.20 mph63%29.74 "HgN/A
11:25 AM55 °FPartly sunny.23 mph67%29.74 "HgN/A
10:55 AM57 °FBroken clouds.21 mph63%29.74 "HgN/A
10:25 AM54 °FBroken clouds.23 mph72%29.74 "HgN/A
9:55 AM54 °FMostly cloudy.21 mph72%29.74 "HgN/A
9:25 AM54 °FMostly cloudy.17 mph72%29.74 "HgN/A
8:55 AM54 °FPartly sunny.18 mph72%29.74 "HgN/A
8:25 AM54 °FPartly sunny.18 mph72%29.74 "HgN/A
7:55 AM52 °FPassing clouds.15 mph77%29.74 "HgN/A
7:25 AM52 °FPassing clouds.17 mph77%29.74 "HgN/A
6:55 AM52 °FPassing clouds.16 mph72%29.74 "HgN/A
6:25 AM52 °FCool.15 mph72%29.71 "HgN/A
Weather by CustomWeather, © 2015

See weather overviewHow to use our weather pages